OBJECT H, 42832

Orbit data source: Space-Track

You're viewing an Uncataloged Satellite

Recently launched and/or uncataloged satellites may have evolving metadata. Metadata may include but not limited to: Owner, Maufacturer, Bus, Motor, and Mission.

OBJECT H, 42832 is a satellite in SSO that was launched on Fri, 14 Jul 2017 UTC via a SOYUZ-2-1A launch vehicle from the Tyuratam Missile And Space Complex (TTMTR). Unknown objects in Earth's orbit typically refer to objects detected orbiting the Earth but have not yet been identified or cataloged. These objects could be anything from previously untracked satellites, spent rocket stages, debris from satellite collisions, or even natural meteoroids temporarily captured by Earth's gravity.

Loading next visibility...
Identifier
42832, 2017-042H
Orbit
SSO
Country
Flag of TBDTBD
Related business
None
Manufacturer
Unknown
Mission
Non-operational Amateur Technology
Bus & Motor
Unknown
Mass
Unknown
Launch date (UTC)
2017-07-14 (9 years ago)
Launch vehicle
SOYUZ-2-1A
Launch site
Tyuratam Missile And Space Complex (TTMTR)
Object type
Unknown
Shape & HBR
Box, 0.1 m
Radar Cross Section
0.015 m², Small (<0.1 m²)

Expand to show TLE details & history
Last TLE update: 6 hours ago

TLE from 6 hours ago
0 OBJECT H
1 42832U 17042H   26133.16218536  .00002190  00000-0  14678-3 0  9991
2 42832  97.4135 294.9603 0008950 226.3922 133.6565 15.07856113481662
Epoch: 2026-05-13T03:53Z
TLE epoch observation values (Epoch: 2026-05-13T03:53:32.815Z)
Latitude
0.00004°
Longitude
5.6474°
Altitude
550.106 km
Speed
7.584 km/s
True Right ascension
19h 39m 50s
True Declination
0° 00' 00"
Sunlit
Object was in full shadow at epoch
Visualization orbit readout
Latitude
Unknown
Longitude
Unknown
Altitude
Unknown
Speed
Unknown
Apparent Right ascension
Unknown
Apparent Declination
Unknown
Sunlit
N/A
Visualization observer readout
Local Sidereal Time
18:35:16
Azimuth
Unknown
Elevation
Unknown
Doppler factor
Unknown
Orbital elements
Apogee altitude
545.926 km
Perigee altitude
533.543 km
Semi-major axis
6,917.872 km
Eccentricity
0.0009
Inclination
97.4135°
RAAN
294.9603°
Arg. of periapsis
226.3922°
True anomaly
133.73064°
Mean anomaly
133.6565°
Eccentric anomaly
133.69358°
Mean motion
3.77211 °/min
Orbital period
95.44 mins
BSTAR
0.00014678
Loading maneuver chart data...
Computing Atmospheric mass density...
Loading historical data...
Loading historical data...
Loading historical data...
Loading historical data...
Loading historical data...
Loading historical data...
Loading historical data...

Documentation

Showing up to 5 results
|